FW2788 Weather Reports


Display with metric or nautical units.
time (UTC)temp
F
wind
direction
speed
MPH
gust
MPH
rain 1hr
in
rain 24hr
in
rain mn
in
humidity
%
barometer
mb
20260505173502 69 300 5.0 6.0 0.00 0.00 0.00 40
20260505172958 69 180 5.0 8.0 0.00 0.00 0.00 38
20260505172457 69 177 3.0 5.0 0.00 0.00 0.00 40
20260505171956 69 161 0.0 6.0 0.00 0.00 0.00 40
20260505171447 69 154 2.0 5.0 0.00 0.00 0.00 38
20260505170938 71 105 2.0 4.0 0.00 0.00 0.00 40
20260505170435 71 285 1.0 4.0 0.00 0.00 0.00 38
20260505165930 68 185 1.0 3.0 0.00 0.00 0.00 38
20260505165426 67 186 0.0 4.0 0.00 0.00 0.00 40
20260505164922 68 156 4.0 5.0 0.00 0.00 0.00 40
20260505164419 68 107 0.0 4.0 0.00 0.00 0.00 42
20260505163917 67 169 3.0 6.0 0.00 0.00 0.00 43
20260505163416 67 276 3.0 4.0 0.00 0.00 0.00 43
20260505162914 66 253 2.0 4.0 0.00 0.00 0.00 43
20260505162410 66 194 4.0 8.0 0.00 0.00 0.00 41
20260505161907 66 191 6.0 8.0 0.00 0.00 0.00 41
20260505161403 65 167 1.0 9.0 0.00 0.00 0.00 42
20260505160901 66 149 5.0 9.0 0.00 0.00 0.00 41
20260505160359 65 175 3.0 9.0 0.00 0.00 0.00 43
20260505153332 65 126 3.0 7.0 0.00 0.00 0.00 46
20260505152828 65 140 5.0 7.0 0.00 0.00 0.00 47
20260505152325 65 155 3.0 4.0 0.00 0.00 0.00 50
20260505151820 63 251 1.0 2.0 0.00 0.00 0.00 55
20260505151317 61 124 2.0 3.0 0.00 0.00 0.00 58
20260505150814 59 124 2.0 2.0 0.00 0.00 0.00 58
20260505150311 60 112 2.0 4.0 0.00 0.00 0.00 57
20260505140235 52 79 1.0 3.0 0.00 0.00 0.00 70
20260505130159 50 108 2.0 3.0 0.00 0.00 0.00 70
20260505124649 50 166 2.0 4.0 0.00 0.00 0.00 70
20260505124145 50 113 3.0 4.0 0.00 0.00 0.00 71
20260505123641 50 130 4.0 4.0 0.00 0.00 0.00 71
20260505123138 49 150 2.0 4.0 0.00 0.00 0.00 72
20260505122629 48 111 3.0 5.0 0.00 0.00 0.00 73
20260505122126 48 92 3.0 6.0 0.00 0.00 0.00 73
20260505121622 48 176 2.0 5.0 0.00 0.00 0.00 73
20260505121119 49 133 2.0 6.0 0.00 0.00 0.00 72
20260505120615 50 130 4.0 9.0 0.00 0.00 0.00 70
20260505120111 50 121 4.0 4.0 0.00 0.00 0.00 70
20260505115605 50 143 4.0 5.0 0.00 0.00 0.00 70
20260505115103 50 108 5.0 5.0 0.00 0.00 0.00 70
20260505114600 50 119 4.0 4.0 0.00 0.00 0.00 70
20260505114056 49 67 4.0 7.0 0.00 0.00 0.00 70
20260505113553 49 129 2.0 3.0 0.00 0.00 0.00 70
20260505113050 49 97 1.0 2.0 0.00 0.00 0.00 70
20260505112546 50 157 7.0 8.0 0.00 0.00 0.00 68
20260505112044 50 139 4.0 4.0 0.00 0.00 0.00 68
20260505111538 50 133 3.0 4.0 0.00 0.00 0.00 68
20260505111034 51 157 1.0 3.0 0.00 0.00 0.00 67
20260505092037 55 128 0.0 2.0 0.00 0.00 0.00 58
20260505091533 55 128 0.0 2.0 0.00 0.00 0.00 58
20260505091031 56 168 1.0 2.0 0.00 0.00 0.00 58
20260505090529 56 155 3.0 4.0 0.00 0.00 0.00 56
20260505090027 57 140 1.0 3.0 0.00 0.00 0.00 55
20260505085524 57 134 2.0 3.0 0.00 0.00 0.00 54
20260505085022 57 223 2.0 2.0 0.00 0.00 0.00 54
20260505084520 57 180 1.0 4.0 0.00 0.00 0.00 54
20260505084018 57 281 4.0 5.0 0.00 0.00 0.00 54
20260505083515 57 292 3.0 4.0 0.00 0.00 0.00 54
20260505083011 58 280 2.0 6.0 0.00 0.00 0.00 53
20260505082507 59 294 4.0 4.0 0.00 0.00 0.00 52
20260505082004 59 214 1.0 5.0 0.00 0.00 0.00 52
20260505081501 59 318 5.0 7.0 0.00 0.00 0.00 51
20260505080957 60 344 4.0 7.0 0.00 0.00 0.00 51
20260505080454 59 285 4.0 10.0 0.00 0.00 0.00 51
20260505075949 59 273 4.0 8.0 0.00 0.00 0.00 51
20260505075446 59 335 4.0 8.0 0.00 0.00 0.00 52
20260505074943 59 181 1.0 4.0 0.00 0.00 0.00 53
20260505074441 59 266 2.0 2.0 0.00 0.00 0.00 52
20260505073938 59 269 3.0 5.0 0.00 0.00 0.00 51
20260505073436 59 322 3.0 6.0 0.00 0.00 0.00 52
20260505072932 59 297 3.0 4.0 0.00 0.00 0.00 52
20260505072429 59 280 3.0 3.0 0.00 0.00 0.00 52
20260505071925 61 294 2.0 6.0 0.00 0.00 0.00 49
20260505071421 61 321 1.0 8.0 0.00 0.00 0.00 49
20260505070919 61 315 3.0 5.0 0.00 0.00 0.00 49
20260505070415 62 303 2.0 8.0 0.00 0.00 0.00 48
20260505065911 61 328 4.0 4.0 0.00 0.00 0.00 49
20260505065408 62 284 4.0 5.0 0.00 0.00 0.00 48
20260505064905 62 301 3.0 6.0 0.00 0.00 0.00 47
20260505064402 63 299 6.0 6.0 0.00 0.00 0.00 46
20260505063900 63 312 6.0 7.0 0.00 0.00 0.00 45
20260505063356 63 305 5.0 9.0 0.00 0.00 0.00 45
20260505062852 64 321 4.0 9.0 0.00 0.00 0.00 45
20260505062350 63 335 5.0 6.0 0.00 0.00 0.00 46
20260505061847 63 303 5.0 6.0 0.00 0.00 0.00 46
20260505061345 63 312 2.0 9.0 0.00 0.00 0.00 46
20260505060842 64 319 7.0 8.0 0.00 0.00 0.00 45
20260505060339 64 316 4.0 10.0 0.00 0.00 0.00 45
20260505055835 63 287 4.0 8.0 0.00 0.00 0.00 46
20260505055331 64 319 5.0 7.0 0.00 0.00 0.00 46
20260505054828 64 300 2.0 7.0 0.00 0.00 0.00 46
20260505054326 64 322 3.0 6.0 0.00 0.00 0.00 46
20260505053824 63 320 4.0 8.0 0.00 0.00 0.00 47
20260505053320 63 296 4.0 5.0 0.00 0.00 0.00 47
20260505052817 64 307 2.0 5.0 0.00 0.00 0.00 47
20260505052314 64 298 2.0 6.0 0.00 0.00 0.00 47
20260505051811 64 294 4.0 6.0 0.00 0.00 0.00 46
20260505051309 65 325 3.0 7.0 0.00 0.00 0.00 46
20260505050806 65 318 5.0 6.0 0.00 0.00 0.00 44
20260505050305 65 288 5.0 8.0 0.00 0.00 0.00 43
20260505041735 67 300 4.0 5.0 0.00 0.00 0.00 44
20260505041232 67 327 4.0 8.0 0.00 0.00 0.00 43
20260505040729 68 310 3.0 4.0 0.00 0.00 0.00 41
20260505040226 69 317 4.0 7.0 0.00 0.00 0.00 39
20260505035723 70 292 4.0 5.0 0.00 0.00 0.00 39
20260505035219 70 304 2.0 4.0 0.00 0.00 0.00 38
20260505034716 70 286 2.0 3.0 0.00 0.00 0.00 38
20260505034213 70 288 0.0 4.0 0.00 0.00 0.00 39
20260505033709 71 356 2.0 3.0 0.00 0.00 0.00 38
20260505033208 72 336 4.0 6.0 0.00 0.00 0.00 37
20260505032705 72 351 3.0 10.0 0.00 0.00 0.00 37
20260505032201 72 39 4.0 6.0 0.00 0.00 0.00 36
20260505031658 72 293 5.0 6.0 0.00 0.00 0.00 36
20260505031155 73 290 3.0 3.0 0.00 0.00 0.00 37
20260505030651 73 2 5.0 7.0 0.00 0.00 0.00 36
20260505030147 73 345 2.0 5.0 0.00 0.00 0.00 36
20260505025644 73 284 2.0 5.0 0.00 0.00 0.00 36
20260505025142 74 288 4.0 5.0 0.00 0.00 0.00 36
20260505024639 75 303 3.0 7.0 0.00 0.00 0.00 35
20260505024136 74 296 5.0 5.0 0.00 0.00 0.00 35
20260505023634 75 343 2.0 6.0 0.00 0.00 0.00 34
20260505023131 76 314 6.0 9.0 0.00 0.00 0.00 33
20260505022629 76 319 3.0 8.0 0.00 0.00 0.00 33
20260505022125 76 317 5.0 8.0 0.00 0.00 0.00 33
20260505021622 77 298 6.0 6.0 0.00 0.00 0.00 32
20260505021118 77 291 2.0 9.0 0.00 0.00 0.00 32
20260505020614 78 359 1.0 11.0 0.00 0.00 0.00 31
20260505020110 78 303 9.0 12.0 0.00 0.00 0.00 31
20260505015608 78 312 5.0 11.0 0.00 0.00 0.00 30
20260505015104 79 345 2.0 12.0 0.00 0.00 0.00 31
20260505014601 79 308 4.0 13.0 0.00 0.00 0.00 30
20260505014058 79 307 5.0 8.0 0.00 0.00 0.00 30
20260505013555 79 307 8.0 9.0 0.00 0.00 0.00 30
20260505013053 79 303 5.0 15.0 0.00 0.00 0.00 30
20260505012551 79 331 4.0 13.0 0.00 0.00 0.00 29
20260505012048 80 342 4.0 12.0 0.00 0.00 0.00 28
20260505011543 80 312 8.0 13.0 0.00 0.00 0.00 28
20260505011041 80 289 11.0 12.0 0.00 0.00 0.00 28
20260505010536 81 316 9.0 10.0 0.00 0.00 0.00 28
20260505010032 81 1 9.0 12.0 0.00 0.00 0.00 26
20260505005529 81 305 11.0 14.0 0.00 0.00 0.00 26
20260505005027 81 310 12.0 16.0 0.00 0.00 0.00 25
20260505004523 82 337 3.0 12.0 0.00 0.00 0.00 24
20260505004020 81 330 2.0 14.0 0.00 0.00 0.00 24
20260505003517 82 262 5.0 7.0 0.00 0.00 0.00 24
20260505003014 81 320 7.0 13.0 0.00 0.00 0.00 23
20260505002509 82 298 9.0 10.0 0.00 0.00 0.00 25
20260505002008 81 344 4.0 14.0 0.00 0.00 0.00 25
20260505001505 81 329 5.0 11.0 0.00 0.00 0.00 25
20260505001002 81 310 11.0 14.0 0.00 0.00 0.00 25
20260505000459 81 289 13.0 19.0 0.00 0.00 0.00 24
20260504235956 81 335 9.0 17.0 0.00 0.00 0.00 24
20260504235453 81 307 11.0 15.0 0.00 0.00 0.00 25
20260504234950 81 325 6.0 15.0 0.00 0.00 0.00 27
20260504234447 81 308 7.0 15.0 0.00 0.00 0.00 27
20260504233943 81 328 8.0 12.0 0.00 0.00 0.00 26
20260504233439 81 303 6.0 12.0 0.00 0.00 0.00 28
20260504232936 81 288 9.0 15.0 0.00 0.00 0.00 27
20260504232433 81 280 3.0 14.0 0.00 0.00 0.00 30
20260504231931 80 290 6.0 17.0 0.00 0.00 0.00 29
20260504231427 82 307 7.0 11.0 0.00 0.00 0.00 28
20260504230923 82 312 9.0 12.0 0.00 0.00 0.00 29
20260504230420 80 3 2.0 13.0 0.00 0.00 0.00 29
20260504225919 81 314 13.0 18.0 0.00 0.00 0.00 28
20260504225415 81 346 6.0 13.0 0.00 0.00 0.00 29
20260504224913 81 311 4.0 15.0 0.00 0.00 0.00 31
20260504224409 80 290 3.0 12.0 0.00 0.00 0.00 30
20260504223907 81 300 8.0 9.0 0.00 0.00 0.00 30
20260504223402 81 34 2.0 8.0 0.00 0.00 0.00 29
20260504222858 80 337 4.0 8.0 0.00 0.00 0.00 30
20260504222355 81 325 6.0 14.0 0.00 0.00 0.00 28
20260504221854 80 353 8.0 9.0 0.00 0.00 0.00 29
20260504221350 80 317 4.0 10.0 0.00 0.00 0.00 28
20260504220847 80 305 9.0 14.0 0.00 0.00 0.00 27
20260504220344 79 265 7.0 12.0 0.00 0.00 0.00 32
20260504215841 79 269 6.0 16.0 0.00 0.00 0.00 33
20260504215337 79 324 8.0 10.0 0.00 0.00 0.00 31
20260504214833 79 355 5.0 6.0 0.00 0.00 0.00 34
20260504214331 80 317 4.0 8.0 0.00 0.00 0.00 34
20260504213827 79 252 3.0 8.0 0.00 0.00 0.00 33
20260504213323 79 327 4.0 11.0 0.00 0.00 0.00 33
20260504212821 79 15 4.0 8.0 0.00 0.00 0.00 33
20260504212317 78 277 8.0 10.0 0.00 0.00 0.00 34
20260504211815 78 259 4.0 9.0 0.00 0.00 0.00 36
20260504211310 78 293 8.0 12.0 0.00 0.00 0.00 34
20260504210808 78 316 6.0 8.0 0.00 0.00 0.00 35
20260504210305 78 299 2.0 11.0 0.00 0.00 0.00 35
20260504205802 79 317 7.0 12.0 0.00 0.00 0.00 34
20260504205300 78 334 7.0 9.0 0.00 0.00 0.00 34
20260504204758 78 297 7.0 11.0 0.00 0.00 0.00 33
20260504204256 77 340 2.0 7.0 0.00 0.00 0.00 38
20260504203755 76 2 4.0 14.0 0.00 0.00 0.00 35
20260504203252 77 306 5.0 11.0 0.00 0.00 0.00 37
20260504202747 76 308 8.0 11.0 0.00 0.00 0.00 35
20260504202245 76 253 7.0 11.0 0.00 0.00 0.00 34
20260504201742 76 283 8.0 10.0 0.00 0.00 0.00 35
20260504201238 76 284 9.0 10.0 0.00 0.00 0.00 36
20260504200736 75 300 9.0 11.0 0.00 0.00 0.00 34
20260504200232 76 276 6.0 10.0 0.00 0.00 0.00 33
20260504195728 75 289 6.0 11.0 0.00 0.00 0.00 39
20260504195224 75 280 4.0 13.0 0.00 0.00 0.00 35
20260504194722 74 275 10.0 12.0 0.00 0.00 0.00 37
20260504194218 75 320 6.0 10.0 0.00 0.00 0.00 34
20260504193714 75 287 11.0 13.0 0.00 0.00 0.00 36
20260504193212 75 290 6.0 9.0 0.00 0.00 0.00 37
20260504192710 74 279 8.0 11.0 0.00 0.00 0.00 36
20260504192208 74 290 10.0 13.0 0.00 0.00 0.00 36
20260504191707 74 263 8.0 10.0 0.00 0.00 0.00 39
20260504191203 74 20 2.0 8.0 0.00 0.00 0.00 39
20260504190658 73 281 7.0 13.0 0.00 0.00 0.00 39
20260504190155 73 312 6.0 12.0 0.00 0.00 0.00 40
20260504185652 73 312 5.0 9.0 0.00 0.00 0.00 39
20260504185148 72 276 5.0 11.0 0.00 0.00 0.00 39
20260504184644 72 311 11.0 12.0 0.00 0.00 0.00 39
20260504184139 72 299 6.0 7.0 0.00 0.00 0.00 39
20260504183636 72 298 5.0 12.0 0.00 0.00 0.00 41
20260504183134 71 298 7.0 10.0 0.00 0.00 0.00 40
20260504182632 72 285 5.0 10.0 0.00 0.00 0.00 40
20260504182129 73 246 2.0 10.0 0.00 0.00 0.00 37
20260504181626 71 268 2.0 10.0 0.00 0.00 0.00 39
20260504181124 71 304 6.0 9.0 0.00 0.00 0.00 43
20260504180623 70 315 7.0 11.0 0.00 0.00 0.00 43
20260504180121 71 316 10.0 11.0 0.00 0.00 0.00 41
20260504175618 69 312 6.0 9.0 0.00 0.00 0.00 43
20260504175114 71 267 6.0 8.0 0.00 0.00 0.00 44
20260504174613 71 311 2.0 4.0 0.00 0.00 0.00 43
20260504174109 70 293 5.0 7.0 0.00 0.00 0.00 43